2023/09/07 00:00:00, 0.0,20.3
2023/09/07 00:10:00, 1.9,20.3
2023/09/07 00:20:00, 4.8,20.3
2023/09/07 00:30:00, 6.1,20.0
2023/09/07 00:40:00, 7.4,20.2
2023/09/07 00:50:00, 9.1,19.7
2023/09/07 01:00:00, 9.9,19.7
2023/09/07 01:10:00,10.4,19.7
2023/09/07 01:20:00,12.4,19.6
2023/09/07 01:30:00,16.1,19.6
2023/09/07 01:40:00,17.0,19.9
2023/09/07 01:50:00,17.2,19.4
2023/09/07 02:00:00,17.3,19.0
2023/09/07 02:10:00,16.9,19.3
2023/09/07 02:20:00,14.8,19.2
2023/09/07 02:30:00,16.9,19.0
2023/09/07 02:40:00,17.6,19.0
2023/09/07 02:50:00,17.6,19.0
2023/09/07 03:00:00,17.8,18.9
2023/09/07 03:10:00,17.8,18.9
2023/09/07 03:20:00,18.0,18.7
2023/09/07 03:30:00,18.2,18.7
2023/09/07 03:40:00,18.3,18.7
2023/09/07 03:50:00,18.5,18.6
2023/09/07 04:00:00,18.6,18.6
2023/09/07 04:10:00,18.7,18.5
2023/09/07 04:20:00,18.8,18.4
2023/09/07 04:30:00,19.0,18.5
2023/09/07 04:40:00,19.2,18.5
2023/09/07 04:50:00,19.2,18.6
2023/09/07 05:00:00,19.4,18.9
2023/09/07 05:10:00,19.6,19.0
2023/09/07 05:20:00,19.7,18.8
2023/09/07 05:30:00,19.8,18.9
2023/09/07 05:40:00,19.9,18.9
2023/09/07 05:50:00,16.5,19.0
2023/09/07 06:00:00, 0.0,19.2
2023/09/07 06:10:00, 0.0,19.0
2023/09/07 06:20:00, 0.0,18.9
2023/09/07 06:30:00, 3.5,19.0
2023/09/07 06:40:00,19.6,19.2
2023/09/07 06:50:00,19.5,19.1
2023/09/07 07:00:00,19.4,19.1
2023/09/07 07:10:00,19.2,19.3
2023/09/07 07:20:00,19.1,19.3
2023/09/07 07:30:00,19.1,19.6
2023/09/07 07:40:00,19.2,19.8
2023/09/07 07:50:00,19.2,19.9
2023/09/07 08:00:00,19.2,20.7
2023/09/07 08:10:00,19.5,20.5
2023/09/07 08:20:00,19.8,20.6
2023/09/07 08:30:00,20.2,21.5
2023/09/07 08:40:00,19.7,22.4
2023/09/07 08:50:00,19.6,23.0
2023/09/07 09:00:00,18.9,23.3
2023/09/07 09:10:00,19.6,24.0
2023/09/07 09:20:00,20.1,24.8
2023/09/07 09:30:00,20.9,25.6
2023/09/07 09:40:00,20.9,26.3
2023/09/07 09:50:00,15.4,26.6
2023/09/07 10:00:00,21.5,26.7
2023/09/07 10:10:00,21.4,26.4
2023/09/07 10:20:00,15.0,27.5
2023/09/07 10:30:00,15.5,27.6
2023/09/07 10:40:00,21.6,27.1
2023/09/07 10:50:00,21.8,26.3
2023/09/07 11:00:00,20.6,26.2
2023/09/07 11:10:00,20.6,25.9
2023/09/07 11:20:00,20.6,25.8
2023/09/07 11:30:00,19.5,27.6
2023/09/07 11:40:00,19.9,27.5
2023/09/07 11:50:00,19.8,27.9
2023/09/07 12:00:00,19.3,28.0
2023/09/07 12:10:00,19.4,28.0
2023/09/07 12:20:00,20.1,27.2
2023/09/07 12:30:00,20.2,28.0
2023/09/07 12:40:00,20.7,27.1
2023/09/07 12:50:00,18.0,26.7
2023/09/07 13:00:00,14.0,25.9
2023/09/07 13:10:00,14.6,25.8
2023/09/07 13:20:00,13.0,25.7
2023/09/07 13:30:00, 0.0,27.2
2023/09/07 13:40:00, 0.0,27.8
2023/09/07 13:50:00,10.7,27.9
2023/09/07 14:00:00,18.9,28.3
2023/09/07 14:10:00,18.5,26.3
2023/09/07 14:20:00,19.7,25.2
2023/09/07 14:30:00,18.7,25.5
2023/09/07 14:40:00,17.9,25.9
2023/09/07 14:50:00,18.8,25.9
2023/09/07 15:00:00,18.9,26.5
2023/09/07 15:10:00,19.8,26.9
2023/09/07 15:20:00,11.3,27.0
2023/09/07 15:30:00,21.4,27.9
2023/09/07 15:40:00,12.3,27.9
2023/09/07 15:50:00,17.8,27.2
2023/09/07 16:00:00,12.9,27.8
2023/09/07 16:10:00,20.6,27.1
2023/09/07 16:20:00,20.3,26.1
2023/09/07 16:30:00,11.8,25.5
2023/09/07 16:40:00,12.0,25.2
2023/09/07 16:50:00, 6.6,24.8
2023/09/07 17:00:00, 0.0,24.7
2023/09/07 17:10:00, 0.0,24.7
2023/09/07 17:20:00, 0.0,24.5
2023/09/07 17:30:00, 0.4,24.3
2023/09/07 17:40:00, 8.3,24.0
2023/09/07 17:50:00, 8.6,23.7
2023/09/07 18:00:00, 6.8,23.4
2023/09/07 18:10:00,10.0,23.3
2023/09/07 18:20:00,10.4,23.2
2023/09/07 18:30:00,11.1,23.0
2023/09/07 18:40:00,11.6,22.9
2023/09/07 18:50:00,11.5,22.7
2023/09/07 19:00:00,11.4,22.6
2023/09/07 19:10:00,11.4,22.7
2023/09/07 19:20:00,10.5,22.5
2023/09/07 19:30:00, 9.2,22.1
2023/09/07 19:40:00, 8.3,22.2
2023/09/07 19:50:00, 5.8,22.1
2023/09/07 20:00:00, 2.5,21.8
2023/09/07 20:10:00, 2.3,21.5
2023/09/07 20:20:00, 1.8,21.6
2023/09/07 20:30:00, 1.6,21.5
2023/09/07 20:40:00, 2.0,21.5
2023/09/07 20:50:00, 2.3,21.4
2023/09/07 21:00:00, 1.9,21.4
2023/09/07 21:10:00, 2.3,21.4
2023/09/07 21:20:00, 3.7,21.4
2023/09/07 21:30:00, 4.0,21.4
2023/09/07 21:40:00, 4.8,21.4
2023/09/07 21:50:00, 5.0,21.4
2023/09/07 22:00:00, 5.6,21.4
2023/09/07 22:10:00, 6.0,21.4
2023/09/07 22:20:00, 7.3,21.3
2023/09/07 22:30:00, 8.8,21.2
2023/09/07 22:40:00, 9.2,21.2
2023/09/07 22:50:00, 9.3,21.4
2023/09/07 23:00:00, 9.7,21.3
2023/09/07 23:10:00, 9.7,21.2
2023/09/07 23:20:00, 9.7,21.4
2023/09/07 23:30:00, 9.1,21.2
2023/09/07 23:40:00, 8.9,21.2
2023/09/07 23:50:00, 8.2,21.2
